Altus AFB, OK

9:40 AM CDT on October 15, 2019 (GMT -0500)
Altus Air Force Base

Weather History for KLTS - August, 2019

Change the Weather History Date:

Wednesday, August 7, 2019

  Actual Average Record
Temperature  
Mean Temperature 90 °F -  
Max Temperature 104 °F 94 °F 109 °F (2003)
Min Temperature 75 °F 70 °F 62 °F (1997)
Cooling Degree Days 24    
Growing Degree Days 40 (Base 50)    
Moisture  
Dew Point 66 °F    
Average Humidity 49    
Maximum Humidity 79    
Minimum Humidity 24    
Precipitation  
Precipitation 0.00 in - - ()
Sea Level Pressure  
Sea Level Pressure 29.81 in    
Wind  
Wind Speed 9 mph (SSE)    
Max Wind Speed 18 mph    
Max Gust Speed 23 mph    
Visibility 10 miles    
Events      
Averages and records for this station are not official NWS values.
T = Trace of Precipitation, MM = Missing Value Source: NWS Daily Summary

Daily Weather History Graph

Daily Weather History Graph

Search for Another Location

Airport or City:

Astronomy

Aug. 07, 2019 Rise Set
Actual Time 6:51 AM CDT 8:33 PM CDT
Civil Twilight 6:24 AM CDT 9:00 PM CDT
Nautical Twilight 5:51 AM CDT 9:33 PM CDT
Astronomical Twilight 5:16 AM CDT 10:08 PM CDT
Moon 2:06 PM CDT (8/7) 12:37 AM CDT (8/7)
Length of Visible Light 14h 36m
Length of Day
13h 42m
Waxing Crescent, 50% of the Moon is Illuminated
Aug 7
Waxing Crescent
Aug 7
First Quarter
Aug 15
Full
Aug 23
Last Quarter
Aug 30
New

Hourly Weather History & Observations

Time (CDT) Temp. Heat Index Dew Point Humidity Pressure Visibility Wind Dir Wind Speed Gust Speed Precip Events Conditions
12:56 AM 82.2 °F 84.6 °F 66.4 °F 59% 29.86 in 10.0 mi SSE 8.1 mph - N/A   Clear
1:56 AM 81.3 °F 83.6 °F 66.9 °F 61% 29.85 in 10.0 mi SE 8.1 mph - N/A   Clear
2:56 AM 79.5 °F - 68.0 °F 68% 29.83 in 10.0 mi SSE 6.9 mph - N/A   Clear
3:56 AM 78.3 °F - 68.4 °F 71% 29.83 in 10.0 mi SE 5.8 mph - N/A   Clear
4:56 AM 77.5 °F - 68.2 °F 73% 29.85 in 10.0 mi SE 5.8 mph - N/A   Clear
5:56 AM 75.6 °F - 68.5 °F 79% 29.83 in 10.0 mi SSE 4.6 mph - N/A   Clear
6:56 AM 76.5 °F - 67.8 °F 75% 29.85 in 10.0 mi SE 5.8 mph - N/A   Clear
7:56 AM 78.8 °F - 68.2 °F 70% 29.86 in 10.0 mi SSE 3.5 mph - N/A   Clear
8:56 AM 81.7 °F 84.5 °F 67.8 °F 63% 29.87 in 10.0 mi ESE 8.1 mph - N/A   Scattered Clouds
9:56 AM 86.4 °F 89.7 °F 68.2 °F 54% 29.87 in 10.0 mi South 10.4 mph - N/A   Scattered Clouds
10:56 AM 90.9 °F 94.8 °F 67.8 °F 47% 29.86 in 10.0 mi SSE 9.2 mph - N/A   Partly Cloudy
11:48 AM 96.8 °F 99.0 °F 64.4 °F 34% 29.84 in 10.0 mi SW 12.7 mph - N/A   Clear
11:56 AM 97.7 °F 99.5 °F 62.8 °F 32% 29.84 in 10.0 mi SSW 10.4 mph - N/A   Clear
1:56 PM 103.6 °F 104.7 °F 60.8 °F 24% 29.81 in 10.0 mi South 11.5 mph - N/A   Clear
2:56 PM 104.0 °F 106.0 °F 61.2 °F 25% 29.78 in 10.0 mi South 11.5 mph 19.6 mph N/A   Clear
3:05 PM 104.0 °F 105.3 °F 60.8 °F 24% 29.78 in 10.0 mi South 13.8 mph - N/A   Clear
3:56 PM 104.7 °F 107.2 °F 62.8 °F 25% 29.76 in 10.0 mi SSE 18.4 mph 23.0 mph N/A   Clear
4:56 PM 103.6 °F 105.4 °F 61.9 °F 25% 29.76 in 10.0 mi South 17.3 mph - N/A   Clear
5:56 PM 97.0 °F 99.9 °F 65.5 °F 35% 29.76 in 10.0 mi SSE 10.4 mph - N/A   Overcast
6:56 PM 95.2 °F 99.3 °F 67.6 °F 40% 29.76 in 10.0 mi South 9.2 mph - N/A   Overcast
7:56 PM 93.6 °F 98.4 °F 68.9 °F 44% 29.74 in 10.0 mi SSE 10.4 mph - N/A   Overcast
8:56 PM 89.2 °F 92.4 °F 66.9 °F 48% 29.75 in 10.0 mi SSE 9.2 mph - N/A   Mostly Cloudy
9:56 PM 87.8 °F 90.4 °F 66.2 °F 49% 29.77 in 10.0 mi SSE 10.4 mph - N/A   Mostly Cloudy
10:56 PM 88.3 °F 89.9 °F 64.2 °F 45% 29.78 in 10.0 mi SSE 13.8 mph - N/A   Mostly Cloudy
11:56 PM 86.9 °F 88.3 °F 64.2 °F 47% 29.85 in 10.0 mi SSE 10.4 mph - N/A   Mostly Cloudy